Location: Fleischmann Planetarium and Science Center
(39.5456°N, 119.8190°W)
Time: 05:11:34
(UTC-08:00)

Daily predictions for brighter satellites

Satellite Brightness Start Highest point End
(mag) Time Altitude Azimuth Time Altitude Azimuth Time Altitude Azimuth
CENTAUR R/B 4.3 02:40:44 35° ENE 02:40:44 35° ENE 02:46:34 10° ESE
SJ 16-02 4.4 03:50:10 10° ESE 03:52:15 13° E 03:54:20 10° ENE
Cosmos 1980 Rocket 4.2 03:51:23 10° SSE 03:55:51 24° ESE 04:00:18 10° NE
Cosmos 2369 4.3 03:59:52 52° NE 03:59:52 52° NE 04:04:12 10° NNE
Cosmos 1656 4.3 04:02:24 49° NE 04:02:24 49° NE 04:06:23 10° NNE
ADEOS II 4.5 03:57:01 10° N 03:57:28 12° N 03:57:28 12° N
Cosmos 1937 Rocket 4.5 04:05:31 41° NNE 04:05:31 41° NNE 04:08:54 10° NNE
Cosmos 2285 Rocket 4.0 04:06:46 40° N 04:09:19 80° ENE 04:15:46 10° SSE
Lacrosse 5 rocket 2.8 04:26:11 32° NE 04:26:11 32° NE 04:29:44 10° ESE
Cosmos 1697 Rocket 2.7 04:25:36 62° S 04:26:32 80° ESE 04:32:09 10° NNE
Okean O Rocket 2.9 04:22:41 10° NNE 04:25:06 32° N 04:25:06 32° N
Cosmos 1934 Rocket 4.5 04:22:03 10° S 04:28:16 61° E 04:34:33 10° NNE
CENTAUR R/B 3.1 04:28:02 49° WNW 04:29:55 59° WSW 04:38:12 10° SSE
OAO 3 Rocket 3.9 04:31:08 44° SSE 04:31:08 44° SSE 04:35:14 10° ESE
Cosmos 2227 Rocket 3.4 04:33:57 26° S 04:33:57 26° S 04:36:27 10° S
Cosmos 2297 Rocket 2.7 04:46:21 40° SW 04:46:21 40° SW 04:50:24 10° S
Cosmos 2298 Rocket 4.3 04:47:34 46° NW 04:47:34 46° NW 04:52:10 10° N
Cosmos 1821 Rocket 3.8 04:42:46 17° SSW 04:47:31 69° W 04:53:44 10° N
CZ-2C R/B 4.2 04:44:49 10° SSE 04:49:27 62° ENE 04:54:03 10° N
CZ-4B R/B 3.1 04:48:19 10° N 04:53:40 63° WNW 04:56:33 28° SW
ASTRO E2 4.4 04:55:10 22° S 04:55:10 22° S 04:58:00 10° SE
USA 116 4.1 04:51:08 10° SSE 04:55:30 82° ENE 05:00:28 10° N
Cosmos 1535 Rocket 4.3 04:53:01 10° SSW 04:59:06 66° W 05:05:12 10° N
Cosmos 2150 Rocket 4.5 05:04:22 37° WNW 05:04:25 37° WNW 05:09:12 10° N
NOAA 6 4.3 04:59:34 10° NNE 05:04:44 70° ESE 05:09:51 10° S
CZ-3 R/B 3.2 04:57:29 24° WSW 05:07:36 45° SSW 05:13:45 10° SE
Cosmos 2360 4.1 05:02:03 10° SSW 05:07:46 87° WNW 05:13:32 10° NNE
Cosmos 2082 4.3 05:12:39 31° W 05:12:59 31° WSW 05:17:56 10° SSW
IDEFIX/ARIANE 42P 2.6 05:07:47 10° NNE 05:13:02 82° ESE 05:18:14 10° S
Cosmos 1933 3.2 05:09:33 10° S 05:13:39 84° W 05:17:44 10° N
Cosmos 1862 3.3 05:11:36 10° NNW 05:15:29 52° W 05:19:22 10° S
Cosmos 2263 Rocket 4.2 05:11:15 10° N 05:16:00 27° NE 05:20:45 10° ESE
CZ-2C R/B 3.0 05:11:43 10° NNE 05:16:45 62° E 05:21:52 10° S
Okean-O 2.7 05:15:45 10° NNE 05:20:12 79° ESE 05:24:38 10° S
PAYLOAD A 3.8 05:17:45 10° N 05:22:32 83° WNW 05:27:26 10° SSW
EO 1 Del DPAF 4.3 05:19:18 10° SSE 05:22:58 47° ENE 05:26:40 10° N
COSMOS 2455 3.2 05:19:30 10° NNW 05:25:32 67° ENE 05:31:31 10° SE
Cosmos 2322 Rocket 3.4 05:21:55 10° S 05:27:16 45° ESE 05:32:41 10° NE
Radarsat Rocket 4.1 05:21:34 10° NNE 05:27:24 80° ESE 05:33:35 10° SSW
Cosmos 1862 Rocket 4.0 05:23:15 10° S 05:27:32 65° E 05:31:53 10° NNE
Cosmos 1733 Rocket 3.4 05:24:30 10° N 05:28:52 70° E 05:33:14 10° SSE
BREEZE-M DEB (TANK) 1.8 05:28:25 32° W 05:29:27 52° SW 05:31:35 10° SE
SJ 16-02 1.5 05:26:02 10° SW 05:30:20 50° WNW 05:34:40 10° N
Cosmos 2227 4.3 05:26:42 10° NNW 05:32:21 81° ENE 05:37:58 10° SSE
Cosmos 1605 Rocket 3.9 05:26:49 10° SSW 05:32:52 61° W 05:38:55 10° N
COSMO-SKYMED 1 2.5 05:29:12 10° S 05:33:29 60° W 05:37:47 10° NNW
Landsat 4 3.6 05:31:18 10° SSE 05:35:01 90° WSW 05:38:46 10° NNW
Cosmos 1048 Rocket 3.9 05:33:16 10° NNW 05:38:26 74° WSW 05:43:31 10° S
Cosmos 1980 Rocket 2.5 05:34:06 10° SW 05:39:31 45° WNW 05:44:57 10° N
Meteor 2-17 Rocket 4.5 05:33:48 10° SSW 05:39:41 55° W 05:45:40 10° N
Cosmos 158 Rocket 4.2 05:36:39 10° NNW 05:41:25 44° WSW 05:46:17 10° S
Cosmos 1633 3.8 05:41:45 10° N 05:45:16 45° E 05:48:47 10° SSE
BREEZE-M R/B 4.4 05:39:19 10° SW 05:45:45 75° SE 05:52:22 10° NE
Cosmos 1441 Rocket 3.2 05:42:13 10° SSW 05:46:10 69° W 05:50:10 10° N
Hubble Space Telescope 3.0 05:43:51 10° SW 05:46:31 17° S 05:49:11 10° SE
Cosmos 1125 Rocket 3.9 05:48:32 10° SW 05:53:25 41° WNW 05:58:19 10° N
Cosmos 372 Rocket 4.5 05:52:55 10° SW 05:57:35 36° WNW 06:02:19 10° N
Cosmos 2061 Rocket 4.4 05:52:07 10° S 05:58:16 69° E 06:04:25 10° NNE
ATLAS 5 CENTAUR R/B 1.6 05:53:54 10° SW 05:58:21 84° WNW 06:03:16 10° NNE
Cosmos 1802 Rocket 4.3 05:58:14 10° S 06:04:37 77° E 06:10:59 10° N
Meteor 1-26 Rocket 4.4 05:59:08 10° SSW 06:04:55 57° WNW 06:10:41 10° N
Lacrosse 5 rocket 2.3 06:01:54 10° WNW 06:05:13 29° SW 06:08:48 10° S
Cosmos 2173 Rocket 4.0 06:01:57 10° S 06:08:10 85° W 06:14:21 10° N
Cosmos 1459 Rocket 4.0 06:03:13 10° S 06:09:26 82° W 06:15:48 10° N
Cosmos 1697 Rocket 4.2 06:07:48 10° W 06:11:10 16° NW 06:14:33 10° NNW
SL-16 R/B 2.2 06:05:48 10° SSW 06:11:27 74° WNW 06:17:09 10° NNE
Cosmos 1437 Rocket 3.6 06:07:53 10° N 06:11:56 59° E 06:15:52 10° SSE
Sich 1 Rocket 3.8 06:14:18 10° N 06:18:42 77° E 06:23:05 10° S
Cosmos 1782 Rocket 4.3 06:15:09 10° N 06:19:26 57° E 06:23:42 10° SSE
